RW6A-13 Weather Reports


Display with metric or nautical units.
time (UTC)temp
F
wind
direction
speed
MPH
gust
MPH
rain 1hr
in
rain 24hr
in
rain mn
in
humidity
%
barometer
mb
20260508131502 77 248 5.0 14.0 0.00 0.00 0.00 49 1011.2
20260508131001 77 225 3.0 10.0 0.00 0.00 0.00 49 1011.3
20260508130502 78 180 2.0 14.0 0.00 0.00 0.00 49 1011.3
20260508130002 78 225 5.0 11.0 0.00 0.00 0.00 50 1011.3
20260508125501 78 248 5.0 11.0 0.00 0.00 0.00 51 1011.3
20260508125001 78 248 4.0 10.0 0.00 0.00 0.00 51 1011.2
20260508124502 78 225 2.0 9.0 0.00 0.00 0.00 51 1011.4
20260508124001 78 315 2.0 11.0 0.00 0.00 0.00 49 1011.4
20260508123501 78 270 5.0 13.0 0.00 0.00 0.00 49 1011.4
20260508123001 78 293 5.0 11.0 0.00 0.00 0.00 52 1011.5
20260508122501 78 270 4.0 10.0 0.00 0.00 0.00 51 1011.5
20260508122001 78 270 6.0 13.0 0.00 0.00 0.00 51 1011.4
20260508121502 78 270 6.0 12.0 0.00 0.00 0.00 52 1011.5
20260508121001 78 315 5.0 14.0 0.00 0.00 0.00 51 1011.5
20260508120501 79 315 5.0 14.0 0.00 0.00 0.00 50 1011.5
20260508120000 79 270 5.0 13.0 0.00 0.00 0.00 51 1011.5
20260508115500 80 315 7.0 14.0 0.00 0.00 0.00 50 1011.6
20260508115001 79 270 4.0 11.0 0.00 0.00 0.00 51 1011.6
20260508114501 80 248 7.0 13.0 0.00 0.00 0.00 51 1011.8
20260508114001 79 225 6.0 11.0 0.00 0.00 0.00 52 1011.8
20260508113501 79 270 7.0 16.0 0.00 0.00 0.00 51 1011.9
20260508113000 79 225 5.0 12.0 0.00 0.00 0.00 52 1011.9
20260508112501 79 225 3.0 10.0 0.00 0.00 0.00 52 1012.0
20260508112000 79 45 4.0 11.0 0.00 0.00 0.00 51 1012.1
20260508111500 78 315 2.0 11.0 0.00 0.00 0.00 51 1012.1
20260508111001 78 0 3.0 12.0 0.00 0.00 0.00 52 1012.1
20260508110500 79 270 4.0 11.0 0.00 0.00 0.00 50 1012.2
20260508110001 79 293 5.0 13.0 0.00 0.00 0.00 51 1012.1
20260508105501 78 315 4.0 15.0 0.00 0.00 0.00 51 1012.1
20260508105000 79 225 3.0 13.0 0.00 0.00 0.00 50 1012.2
20260508104500 79 270 4.0 13.0 0.00 0.00 0.00 51 1012.1
20260508103959 79 270 5.0 14.0 0.00 0.00 0.00 50 1012.1
20260508103500 79 0 3.0 16.0 0.00 0.00 0.00 50 1012.0
20260508103000 80 225 5.0 11.0 0.00 0.00 0.00 49 1012.1
20260508102500 80 270 3.0 11.0 0.00 0.00 0.00 54 1012.2
20260508102000 79 270 4.0 11.0 0.00 0.00 0.00 50 1012.2
20260508101500 80 248 5.0 12.0 0.00 0.00 0.00 52 1012.2
20260508101000 79 315 5.0 12.0 0.00 0.00 0.00 52 1012.1
20260508100500 79 338 5.0 11.0 0.00 0.00 0.00 51 1012.2
20260508100000 79 270 7.0 11.0 0.00 0.00 0.00 51 1012.3
20260508095459 80 225 5.0 11.0 0.00 0.00 0.00 52 1012.2
20260508095000 79 315 5.0 11.0 0.00 0.00 0.00 52 1012.2
20260508094500 79 315 5.0 9.0 0.00 0.00 0.00 53 1012.3
20260508093959 79 315 5.0 11.0 0.00 0.00 0.00 53 1012.3
20260508093500 79 225 4.0 11.0 0.00 0.00 0.00 54 1012.4
20260508093000 79 315 5.0 13.0 0.00 0.00 0.00 54 1012.4
20260508092459 79 270 5.0 11.0 0.00 0.00 0.00 55 1012.4
20260508092044 79 270 5.0 13.0 0.00 0.00 0.00 55 1012.5
20260508091543 78 270 5.0 13.0 0.00 0.00 0.00 55 1012.5
20260508091043 79 270 5.0 12.0 0.00 0.00 0.00 56 1012.5
20260508090544 78 315 5.0 11.0 0.00 0.00 0.00 57 1012.6
20260508090043 77 270 5.0 10.0 0.00 0.00 0.00 58 1012.6
20260508085543 77 270 5.0 11.0 0.00 0.00 0.00 57 1012.6
20260508085043 77 180 5.0 11.0 0.00 0.00 0.00 60 1012.6
20260508084543 76 270 7.0 12.0 0.00 0.00 0.00 59 1012.7
20260508084043 76 270 2.0 13.0 0.00 0.00 0.00 60 1012.7
20260508083543 74 225 4.0 11.0 0.00 0.00 0.00 62 1012.8
20260508083044 76 248 5.0 13.0 0.00 0.00 0.00 59 1012.8
20260508082543 77 293 5.0 10.0 0.00 0.00 0.00 58 1012.8
20260508082042 77 0 4.0 12.0 0.00 0.00 0.00 58 1012.9
20260508081543 76 270 5.0 9.0 0.00 0.00 0.00 59 1012.9
20260508081043 76 270 4.0 10.0 0.00 0.00 0.00 60 1013.0
20260508080543 74 225 5.0 10.0 0.00 0.00 0.00 62 1012.9
20260508080043 75 248 2.0 8.0 0.00 0.00 0.00 61 1013.0
20260508075543 76 225 5.0 8.0 0.00 0.00 0.00 58 1013.1
20260508075043 77 270 3.0 8.0 0.00 0.00 0.00 59 1013.1
20260508074543 75 270 3.0 10.0 0.00 0.00 0.00 60 1013.1
20260508074043 75 225 2.0 11.0 0.00 0.00 0.00 60 1013.2
20260508073542 74 248 3.0 8.0 0.00 0.00 0.00 61 1013.2
20260508073043 74 315 4.0 8.0 0.00 0.00 0.00 61 1013.1
20260508072542 75 248 5.0 10.0 0.00 0.00 0.00 61 1013.2
20260508072042 74 225 2.0 9.0 0.00 0.00 0.00 62 1013.2
20260508071543 74 270 3.0 8.0 0.00 0.00 0.00 62 1013.3
20260508071042 73 225 2.0 8.0 0.00 0.00 0.00 62 1013.3
20260508070542 73 315 2.0 8.0 0.00 0.00 0.00 62 1013.3
20260508070043 72 248 3.0 8.0 0.00 0.00 0.00 64 1013.4
20260508065542 71 270 2.0 8.0 0.00 0.00 0.00 65 1013.4
20260508065042 71 270 4.0 9.0 0.00 0.00 0.00 65 1013.4
20260508064542 70 248 5.0 10.0 0.00 0.00 0.00 66 1013.3
20260508064042 70 270 5.0 10.0 0.00 0.00 0.00 66 1013.3
20260508063542 70 270 5.0 13.0 0.00 0.00 0.00 65 1013.3
20260508063042 69 270 5.0 9.0 0.00 0.00 0.00 66 1013.4
20260508062542 69 270 5.0 9.0 0.00 0.00 0.00 67 1013.3
20260508062041 69 203 2.0 9.0 0.00 0.00 0.00 69 1013.4
20260508061542 68 225 3.0 11.0 0.00 0.00 0.00 69 1013.3
20260508061042 67 225 5.0 10.0 0.00 0.00 0.00 70 1013.5
20260508060542 66 225 7.0 13.0 0.00 0.00 0.00 71 1013.5
20260508060042 66 270 5.0 8.0 0.00 0.00 0.00 73 1013.5
20260508055541 65 0 2.0 12.0 0.00 0.00 0.00 73 1013.7
20260508055042 64 270 3.0 8.0 0.00 0.00 0.00 76 1013.7
20260508054542 62 0 4.0 9.0 0.00 0.00 0.00 79 1013.8
20260508054041 61 315 2.0 9.0 0.00 0.00 0.00 79 1013.8
20260508053542 61 225 5.0 11.0 0.00 0.00 0.00 79 1013.6
20260508053041 61 270 5.0 10.0 0.00 0.00 0.00 81 1013.8
20260508052542 60 248 5.0 11.0 0.00 0.00 0.00 81 1013.7
20260508052041 60 248 5.0 11.0 0.00 0.00 0.00 80 1013.9
20260508051542 60 270 5.0 11.0 0.00 0.00 0.00 80 1014.0
20260508051042 60 270 5.0 8.0 0.00 0.00 0.00 79 1014.0
20260508050540 59 315 3.0 8.0 0.00 0.00 0.00 82 1013.9
20260508050040 59 270 5.0 10.0 0.00 0.00 0.00 82 1013.8
20260508045540 59 315 3.0 10.0 0.00 0.00 0.00 82 1014.0
20260508045040 58 293 5.0 8.0 0.00 0.00 0.00 84 1014.2
20260508044540 57 225 2.0 8.0 0.00 0.00 0.00 86 1014.2
20260508044039 56 225 3.0 8.0 0.00 0.00 0.00 86 1014.3
20260508043540 56 225 2.0 8.0 0.00 0.00 0.00 86 1014.2
20260508043040 56 270 4.0 10.0 0.00 0.00 0.00 86 1014.2
20260508042540 56 270 4.0 7.0 0.00 0.00 0.00 86 1014.3
20260508042040 56 225 2.0 5.0 0.00 0.00 0.00 86 1014.2
20260508041539 55 270 3.0 8.0 0.00 0.00 0.00 86 1014.2
20260508041040 55 225 5.0 8.0 0.00 0.00 0.00 87 1014.1
20260508040539 55 270 4.0 9.0 0.00 0.00 0.00 88 1014.2
20260508040039 55 315 2.0 8.0 0.00 0.00 0.00 89 1014.1
20260508035540 54 270 3.0 7.0 0.00 0.00 0.00 90 1014.0
20260508035039 54 225 2.0 8.0 0.00 0.00 0.00 90 1014.0
20260508034540 54 225 3.0 7.0 0.00 0.00 0.00 91 1014.1
20260508034039 54 270 2.0 7.0 0.00 0.00 0.00 90 1014.0
20260508033540 54 270 2.0 5.0 0.00 0.00 0.00 90 1014.1
20260508033040 54 270 1.0 6.0 0.00 0.00 0.00 90 1014.1
20260508032538 54 225 2.0 8.0 0.00 0.00 0.00 89 1014.0
20260508032038 54 270 4.0 8.0 0.00 0.00 0.00 89 1013.9
20260508031538 54 225 5.0 8.0 0.00 0.00 0.00 89 1014.0
20260508031038 54 225 2.0 8.0 0.00 0.00 0.00 89 1014.0
20260508030538 54 270 4.0 8.0 0.00 0.00 0.00 89 1014.0
20260508030038 54 270 2.0 7.0 0.00 0.00 0.00 89 1014.0
20260508025538 53 225 4.0 8.0 0.00 0.00 0.00 89 1014.0
20260508025037 53 225 2.0 5.0 0.00 0.00 0.00 89 1014.0
20260508024538 53 0 2.0 7.0 0.00 0.00 0.00 89 1014.0
20260508024038 53 248 1.0 7.0 0.00 0.00 0.00 89 1013.9
20260508023538 53 225 5.0 8.0 0.00 0.00 0.00 89 1013.7
20260508023038 53 270 4.0 9.0 0.00 0.00 0.00 89 1013.8
20260508022538 52 225 3.0 8.0 0.00 0.00 0.00 90 1013.9
20260508022038 52 45 2.0 5.0 0.00 0.00 0.00 90 1014.0
20260508021538 52 270 2.0 8.0 0.00 0.00 0.00 91 1013.9
20260508021038 52 270 2.0 6.0 0.00 0.00 0.00 91 1014.0
20260508020537 52 225 2.0 6.0 0.00 0.00 0.00 91 1014.0
20260508020038 52 0 1.0 4.0 0.00 0.00 0.00 91 1014.0
20260508015538 52 248 1.0 4.0 0.00 0.00 0.00 91 1014.0
20260508015037 52 225 0.0 2.0 0.00 0.00 0.00 91 1014.0
20260508014538 52 225 0.0 5.0 0.00 0.00 0.00 92 1013.9
20260508014037 52 225 2.0 5.0 0.00 0.00 0.00 92 1013.9
20260508013538 52 225 0.0 5.0 0.00 0.00 0.00 93 1013.9
20260508013037 52 293 1.0 5.0 0.00 0.00 0.00 93 1014.0
20260508012537 52 225 0.0 2.0 0.00 0.00 0.00 93 1014.1
20260508012037 52 225 0.0 3.0 0.00 0.00 0.00 94 1014.2
20260508011537 52 225 0.0 5.0 0.00 0.00 0.00 94 1014.1
20260508011037 52 90 0.0 4.0 0.00 0.00 0.00 94 1014.1
20260508010537 52 248 0.0 3.0 0.00 0.00 0.00 94 1014.2
20260508010038 52 180 1.0 5.0 0.00 0.00 0.00 93 1014.2
20260508005537 53 180 2.0 5.0 0.00 0.00 0.00 93 1014.3
20260508005037 53 180 0.0 2.0 0.00 0.00 0.00 93 1014.2
20260508004537 54 270 0.0 2.0 0.00 0.00 0.00 93 1014.2
20260508004037 54 225 0.0 2.0 0.00 0.00 0.00 92 1014.2
20260508003538 54 270 0.0 3.0 0.00 0.00 0.00 92 1014.3
20260508003037 54 225 0.0 2.0 0.00 0.00 0.00 92 1014.3
20260508002536 54 270 0.0 2.0 0.00 0.00 0.00 92 1014.3
20260508002037 54 248 1.0 3.0 0.00 0.00 0.00 92 1014.4
20260508001537 54 270 0.0 2.0 0.00 0.00 0.00 92 1014.4
20260508001037 54 225 0.0 2.0 0.00 0.00 0.00 92 1014.4
20260508000537 54 315 0.0 2.0 0.00 0.00 0.00 92 1014.5
20260508000036 54 315 0.0 2.0 0.00 0.00 0.00 92 1014.4
20260507235537 54 45 0.0 0.0 0.00 0.00 0.00 92 1014.4
20260507235036 54 315 0.0 3.0 0.00 0.00 0.00 92 1014.3
20260507234536 54 270 2.0 5.0 0.00 0.00 0.00 91 1014.0
20260507234037 54 270 2.0 5.0 0.00 0.00 0.00 91 1013.8
20260507233536 54 270 2.0 5.0 0.00 0.00 0.00 91 1013.7
20260507233037 54 0 1.0 7.0 0.00 0.00 0.00 91 1013.8
20260507232536 54 270 2.0 5.0 0.00 0.00 0.00 91 1013.8
20260507232036 54 225 2.0 7.0 0.00 0.00 0.00 91 1013.8
20260507231536 54 225 1.0 5.0 0.00 0.00 0.00 91 1013.7
20260507231036 54 270 3.0 7.0 0.00 0.00 0.00 91 1013.7
20260507230536 54 225 2.0 5.0 0.00 0.00 0.00 91 1013.6
20260507225536 54 270 2.0 7.0 0.00 0.00 0.00 91 1013.5
20260507225035 54 203 1.0 4.0 0.00 0.00 0.00 91 1013.5
20260507224536 54 270 1.0 4.0 0.00 0.00 0.00 91 1013.5
20260507224036 54 270 0.0 5.0 0.00 0.00 0.00 91 1013.5
20260507223535 54 315 1.0 4.0 0.00 0.00 0.00 90 1013.5
20260507223036 54 225 2.0 5.0 0.00 0.00 0.00 90 1013.3
20260507222535 55 0 2.0 5.0 0.00 0.00 0.00 89 1013.3
20260507222036 55 270 2.0 7.0 0.00 0.00 0.00 88 1013.5
20260507221536 55 270 0.0 4.0 0.00 0.00 0.00 88 1013.6
20260507221035 55 270 1.0 5.0 0.00 0.00 0.00 88 1013.6
20260507220536 55 45 1.0 4.0 0.00 0.00 0.00 88 1013.7
20260507220035 55 270 2.0 4.0 0.00 0.00 0.00 88 1013.6
20260507215536 55 225 2.0 5.0 0.00 0.00 0.00 88 1013.6
20260507215035 55 270 2.0 4.0 0.00 0.00 0.00 88 1013.6
20260507214535 55 315 2.0 4.0 0.00 0.00 0.00 88 1013.7
20260507214035 55 225 1.0 5.0 0.00 0.00 0.00 87 1013.6
20260507213535 55 270 2.0 8.0 0.00 0.00 0.00 87 1013.5
20260507213035 55 270 3.0 7.0 0.00 0.00 0.00 86 1013.3
20260507212535 55 270 3.0 5.0 0.00 0.00 0.00 85 1013.3
20260507212035 55 225 2.0 7.0 0.00 0.00 0.00 84 1013.3
20260507211535 55 225 2.0 7.0 0.00 0.00 0.00 83 1013.3
20260507211035 55 225 2.0 4.0 0.00 0.00 0.00 83 1013.4
20260507210535 55 225 1.0 5.0 0.00 0.00 0.00 82 1013.5
20260507210034 55 225 2.0 5.0 0.00 0.00 0.00 82 1013.5
20260507205535 55 315 0.0 6.0 0.00 0.00 0.00 81 1013.3
20260507205035 55 225 2.0 7.0 0.00 0.00 0.00 81 1013.2
20260507204535 55 225 2.0 7.0 0.00 0.00 0.00 81 1013.3
20260507204035 55 270 3.0 6.0 0.00 0.00 0.00 80 1013.3
20260507203535 55 225 2.0 5.0 0.00 0.00 0.00 80 1013.2
20260507203035 55 270 2.0 7.0 0.00 0.00 0.00 80 1013.2
20260507202534 55 270 2.0 5.0 0.00 0.00 0.00 79 1013.1
20260507202035 55 270 2.0 7.0 0.00 0.00 0.00 79 1013.2
20260507201534 55 270 2.0 6.0 0.00 0.00 0.00 79 1013.2
20260507201035 55 248 2.0 5.0 0.00 0.00 0.00 79 1013.3
20260507200535 55 270 2.0 5.0 0.00 0.00 0.00 78 1013.2
20260507200034 55 270 2.0 5.0 0.00 0.00 0.00 78 1013.1
20260507195534 55 270 1.0 5.0 0.00 0.00 0.00 78 1013.2
20260507195034 55 225 3.0 7.0 0.00 0.00 0.00 77 1013.1
20260507194534 56 0 2.0 7.0 0.00 0.00 0.00 77 1013.1
20260507194035 56 270 3.0 7.0 0.00 0.00 0.00 76 1013.0
20260507193534 56 225 5.0 9.0 0.00 0.00 0.00 76 1013.1
20260507193035 56 293 3.0 7.0 0.00 0.00 0.00 76 1013.1
20260507192534 56 225 2.0 8.0 0.00 0.00 0.00 76 1013.3
20260507192034 56 270 2.0 5.0 0.00 0.00 0.00 76 1013.3
20260507191534 56 225 2.0 8.0 0.00 0.00 0.00 77 1013.3
20260507191034 56 270 3.0 8.0 0.00 0.00 0.00 78 1013.3
20260507190533 55 270 4.0 8.0 0.00 0.00 0.00 80 1013.2
20260507190034 55 270 3.0 8.0 0.00 0.00 0.00 81 1013.2
20260507185534 55 270 2.0 6.0 0.00 0.00 0.00 82 1013.2
20260507185033 55 248 2.0 5.0 0.00 0.00 0.00 82 1013.3
20260507184534 55 225 2.0 5.0 0.00 0.00 0.00 83 1013.3
20260507184033 55 270 2.0 6.0 0.00 0.00 0.00 83 1013.2
20260507183534 55 270 3.0 5.0 0.00 0.00 0.00 83 1013.2
20260507183034 55 270 2.0 5.0 0.00 0.00 0.00 82 1013.2
20260507182533 55 248 2.0 5.0 0.00 0.00 0.00 82 1013.4
20260507182034 56 225 2.0 4.0 0.00 0.00 0.00 82 1013.4
20260507181533 56 270 1.0 5.0 0.00 0.00 0.00 82 1013.4
20260507181034 56 225 1.0 4.0 0.00 0.00 0.00 81 1013.4
20260507180533 56 225 2.0 5.0 0.00 0.00 0.00 81 1013.5
20260507180033 56 225 2.0 4.0 0.00 0.00 0.00 81 1013.5
20260507175533 56 225 0.0 3.0 0.00 0.00 0.00 80 1013.5
20260507175033 56 225 0.0 5.0 0.00 0.00 0.00 79 1013.5
20260507174533 57 270 2.0 4.0 0.00 0.00 0.00 79 1013.3
20260507174033 57 270 2.0 5.0 0.00 0.00 0.00 78 1013.3
20260507173532 57 315 2.0 5.0 0.00 0.00 0.00 77 1013.3
20260507173033 57 0 2.0 5.0 0.00 0.00 0.00 77 1013.3
20260507172533 57 270 2.0 6.0 0.00 0.00 0.00 76 1013.3
20260507172033 58 270 2.0 5.0 0.00 0.00 0.00 76 1013.2
20260507171533 58 225 1.0 3.0 0.00 0.00 0.00 76 1013.1
20260507171032 58 180 1.0 3.0 0.00 0.00 0.00 75 1013.0
20260507170533 59 0 1.0 3.0 0.00 0.00 0.00 74 1013.0
20260507170032 59 270 2.0 5.0 0.00 0.00 0.00 73 1013.1
20260507165533 59 270 1.0 5.0 0.00 0.00 0.00 72 1013.0
20260507165033 60 270 2.0 6.0 0.00 0.00 0.00 71 1013.0
20260507164533 60 270 2.0 6.0 0.00 0.00 0.00 70 1012.9
20260507164033 61 270 2.0 5.0 0.00 0.00 0.00 70 1012.9
20260507163532 61 270 1.0 6.0 0.00 0.00 0.00 69 1012.9
20260507163033 61 315 0.0 11.0 0.00 0.00 0.00 68 1012.9
20260507162532 62 225 1.0 6.0 0.00 0.00 0.00 67 1012.9
20260507162033 62 293 3.0 8.0 0.00 0.00 0.00 67 1012.8
20260507161532 63 270 2.0 7.0 0.00 0.00 0.00 66 1012.8
20260507161033 63 315 2.0 6.0 0.00 0.00 0.00 65 1012.7
20260507160532 63 315 2.0 6.0 0.00 0.00 0.00 65 1012.6
20260507160032 64 225 2.0 5.0 0.00 0.00 0.00 64 1012.5
20260507155532 64 248 2.0 7.0 0.00 0.00 0.00 64 1012.4
20260507155032 65 315 3.0 11.0 0.00 0.00 0.00 64 1012.3
20260507154532 65 315 2.0 5.0 0.00 0.00 0.00 65 1012.4
20260507154032 65 270 3.0 8.0 0.00 0.00 0.00 64 1012.3
20260507153532 66 225 1.0 7.0 0.00 0.00 0.00 63 1012.4
20260507153033 66 315 3.0 7.0 0.00 0.00 0.00 63 1012.3
20260507152532 66 270 3.0 10.0 0.00 0.00 0.00 62 1012.3
20260507152032 66 225 4.0 9.0 0.00 0.00 0.00 62 1012.4
20260507151532 67 315 2.0 8.0 0.00 0.00 0.00 60 1012.4
20260507151032 67 315 2.0 8.0 0.00 0.00 0.00 59 1012.4
20260507150532 67 315 5.0 10.0 0.00 0.00 0.00 58 1012.4
20260507150032 68 0 2.0 7.0 0.00 0.00 0.00 58 1012.4
20260507145532 68 270 2.0 10.0 0.00 0.00 0.00 60 1012.4
20260507145031 69 270 5.0 12.0 0.00 0.00 0.00 61 1012.4
20260507144532 69 225 2.0 11.0 0.00 0.00 0.00 61 1012.3
20260507144031 69 270 2.0 8.0 0.00 0.00 0.00 61 1012.2
20260507143531 69 270 5.0 8.0 0.00 0.00 0.00 61 1012.2
20260507143032 69 270 4.0 13.0 0.00 0.00 0.00 61 1012.2
20260507142531 70 225 5.0 9.0 0.00 0.00 0.00 62 1012.2
20260507142032 69 270 3.0 13.0 0.00 0.00 0.00 62 1012.2
20260507141531 70 225 2.0 9.0 0.00 0.00 0.00 62 1012.3
20260507141031 70 225 5.0 11.0 0.00 0.00 0.00 61 1012.2
20260507140531 71 315 3.0 11.0 0.00 0.00 0.00 60 1012.2
20260507140031 71 0 4.0 11.0 0.00 0.00 0.00 60 1012.2
20260507135531 71 225 3.0 10.0 0.00 0.00 0.00 60 1012.2
20260507135031 71 270 4.0 7.0 0.00 0.00 0.00 59 1012.2
20260507134531 72 248 5.0 11.0 0.00 0.00 0.00 59 1012.2
20260507134031 72 0 5.0 13.0 0.00 0.00 0.00 59 1012.1
20260507133531 72 315 4.0 12.0 0.00 0.00 0.00 57 1012.0
20260507133030 72 270 2.0 12.0 0.00 0.00 0.00 57 1012.0
20260507132531 72 248 6.0 11.0 0.00 0.00 0.00 57 1012.0
20260507132031 72 270 5.0 11.0 0.00 0.00 0.00 57 1011.9